User: anonymous   Login
Location: Unspecified
(0.0000°N, 0.0000°E)
Time: 09:21:10
(UTC+00:00)
Language:

Tansei-3 - Orbit

View from above orbital plane
View from above orbital plane
View from above satellite
View from above satellite

Ground track
Ground track

The orbit data is extracted from the following two-line orbital elements,

1  9841U 77012A   17086.43471495 -.00000024 +00000-0 +32981-4 0  9992
2  9841 065.7559 144.3106 1725379 135.7001 239.5781 10.73807134572194
Epoch (UTC): 27 March 2017 10:25:59
Eccentricity: 0.1725379
inclination: 65.7559°
perigee height: 803 km
apogee height: 3798 km
right ascension of ascending node: 144.3106°
argument of perigee: 135.7001°
revolutions per day: 10.73807134
mean anomaly at epoch: 239.5781°
orbit number at epoch: 57219

The dashed part of the orbit path shows where the satellite is in the earth's shadow,  

DLR